| time (UTC) | temp C | wind direction | speed KPH | gust KPH | rain 1hr cm | rain 24hr cm | rain mn cm | humidity % | barometer mb |
| 20260904034439 | 25 | 97 | 0.0 | 3.2 | 0.00 | 1.78 | 1.78 | 91 | 1013.1 |
| 20260904032941 | 25 | 97 | 1.6 | 3.2 | 0.00 | 1.78 | 1.78 | 91 | 1013.1 |
| 20260904031440 | 25 | 97 | 0.0 | 0.0 | 0.00 | 1.78 | 1.78 | 91 | 1013.2 |
| 20260904031348 | 25 | 97 | 0.0 | 0.0 | 0.00 | 1.78 | 1.78 | 91 | 1013.0 |
| 20260904024439 | 25 | 97 | 0.0 | 3.2 | 0.00 | 1.78 | 1.78 | 91 | 1013.1 |
| 20260904022939 | 25 | 97 | 0.0 | 3.2 | 0.00 | 1.78 | 1.78 | 91 | 1012.9 |
| 20260904022133 | 25 | 97 | 0.0 | 3.2 | 0.00 | 1.78 | 1.78 | 91 | 1012.6 |
| 20260904015939 | 25 | 97 | 0.0 | 3.2 | 0.00 | 1.78 | 1.78 | 90 | 1012.6 |
| 20260904014437 | 25 | 97 | 0.0 | 3.2 | 0.00 | 1.78 | 1.78 | 90 | 1012.4 |
| 20260904012937 | 25 | 97 | 0.0 | 3.2 | 0.00 | 1.83 | 1.78 | 90 | 1012.3 |
| 20260904012132 | 25 | 97 | 0.0 | 4.8 | 0.00 | 1.85 | 1.78 | 90 | 1012.2 |
| 20260904005937 | 25 | 97 | 0.0 | 0.0 | 0.00 | 1.85 | 1.78 | 90 | 1012.2 |
| 20260904004437 | 25 | 97 | 0.0 | 0.0 | 0.00 | 1.85 | 1.78 | 90 | 1012.3 |
| 20260904003631 | 25 | 97 | 0.0 | 3.2 | 0.00 | 1.85 | 1.78 | 89 | 1012.4 |
| 20260904001436 | 26 | 97 | 0.0 | 3.2 | 0.00 | 1.85 | 1.78 | 90 | 1012.4 |
| 20260903235934 | 26 | 97 | 0.0 | 0.0 | 0.00 | 1.85 | 1.78 | 89 | 1012.6 |
| 20260903235130 | 25 | 97 | 0.0 | 4.8 | 0.00 | 2.97 | 1.78 | 90 | 1012.5 |
| 20260903232931 | 25 | 97 | 3.2 | 4.8 | 0.00 | 4.11 | 1.78 | 90 | 1012.6 |
| 20260903231432 | 25 | 97 | 0.0 | 4.8 | 0.00 | 4.11 | 1.78 | 90 | 1012.6 |
| 20260903225931 | 25 | 97 | 0.0 | 3.2 | 0.00 | 4.11 | 1.78 | 90 | 1012.5 |
| 20260903225140 | 25 | 97 | 0.0 | 4.8 | 0.00 | 4.29 | 1.78 | 90 | 1012.6 |
| 20260903222931 | 25 | 97 | 0.0 | 8.0 | 0.00 | 4.32 | 1.78 | 90 | 1012.7 |
| 20260903221431 | 25 | 102 | 1.6 | 4.8 | 0.00 | 4.57 | 1.78 | 90 | 1012.8 |
| 20260903220638 | 25 | 102 | 1.6 | 4.8 | 0.00 | 4.88 | 1.78 | 90 | 1013.0 |
| 20260903215128 | 25 | 102 | 1.6 | 4.8 | 0.03 | 4.88 | 1.78 | 91 | 1013.2 |
| 20260903212932 | 25 | 102 | 1.6 | 4.8 | 0.05 | 4.88 | 1.78 | 91 | 1013.4 |
| 20260903211431 | 25 | 102 | 4.8 | 8.0 | 0.10 | 4.88 | 1.78 | 90 | 1013.5 |
| 20260903205931 | 25 | 102 | 3.2 | 3.2 | 0.13 | 4.75 | 1.78 | 90 | 1013.8 |
| 20260903205126 | 25 | 102 | 1.6 | 4.8 | 0.23 | 4.75 | 1.75 | 90 | 1014.0 |
| 20260903202931 | 25 | 102 | 1.6 | 11.3 | 0.30 | 4.75 | 1.73 | 90 | 1014.1 |
| 20260903202121 | 25 | 104 | 1.6 | 8.0 | 0.33 | 4.75 | 1.68 | 90 | 1014.2 |
| 20260903195930 | 25 | 106 | 3.2 | 4.8 | 0.36 | 4.39 | 1.63 | 90 | 1014.0 |
| 20260903194431 | 25 | 106 | 3.2 | 3.2 | 0.28 | 4.39 | 1.52 | 90 | 1014.1 |
| 20260903192930 | 24 | 106 | 1.6 | 4.8 | 0.18 | 4.39 | 1.42 | 90 | 1014.3 |
| 20260903191430 | 24 | 107 | 3.2 | 8.0 | 0.15 | 4.39 | 1.35 | 90 | 1014.1 |
| 20260903185930 | 25 | 107 | 1.6 | 4.8 | 0.18 | 4.22 | 1.27 | 90 | 1014.4 |
| 20260903184429 | 25 | 107 | 3.2 | 8.0 | 0.25 | 4.22 | 1.24 | 89 | 1014.9 |
| 20260903182929 | 25 | 107 | 1.6 | 4.8 | 0.36 | 4.22 | 1.24 | 89 | 1015.0 |
| 20260903181428 | 25 | 107 | 0.0 | 3.2 | 0.38 | 4.22 | 1.19 | 89 | 1014.8 |
| 20260903175928 | 25 | 107 | 3.2 | 8.0 | 0.38 | 3.84 | 1.09 | 88 | 1014.8 |
| 20260903174429 | 25 | 100 | 4.8 | 8.0 | 0.69 | 3.84 | 0.99 | 88 | 1015.4 |
| 20260903172927 | 25 | 338 | 3.2 | 11.3 | 0.79 | 3.84 | 0.86 | 87 | 1015.4 |
| 20260903172130 | 25 | 338 | 0.0 | 14.5 | 0.71 | 3.84 | 0.81 | 86 | 1015.3 |
| 20260903165926 | 26 | 0 | 6.4 | 25.7 | 0.64 | 3.20 | 0.74 | 84 | 1015.0 |
| 20260903164427 | 28 | 243 | 4.8 | 20.9 | 0.20 | 3.20 | 0.30 | 78 | 1015.1 |
| 20260903162926 | 30 | 0 | 3.2 | 11.3 | 0.00 | 3.20 | 0.10 | 79 | 1014.6 |
| 20260903161426 | 30 | 149 | 1.6 | 8.0 | 0.00 | 3.20 | 0.10 | 78 | 1014.6 |
| 20260903155926 | 29 | 149 | 0.0 | 4.8 | 0.00 | 3.20 | 0.10 | 79 | 1014.6 |
| 20260903154426 | 29 | 149 | 3.2 | 8.0 | 0.00 | 3.20 | 0.10 | 80 | 1014.4 |
| 20260903152925 | 29 | 124 | 0.0 | 8.0 | 0.00 | 3.20 | 0.10 | 80 | 1014.5 |
| 20260903151425 | 29 | 121 | 0.0 | 4.8 | 0.00 | 3.20 | 0.10 | 83 | 1014.6 |
| 20260903145924 | 28 | 121 | 1.6 | 8.0 | 0.00 | 3.20 | 0.10 | 84 | 1014.8 |
| 20260903144424 | 28 | 121 | 3.2 | 14.5 | 0.00 | 3.20 | 0.10 | 84 | 1015.2 |
| 20260903142924 | 28 | 138 | 1.6 | 11.3 | 0.00 | 3.20 | 0.10 | 85 | 1015.2 |
| 20260903141424 | 28 | 152 | 3.2 | 4.8 | 0.00 | 3.20 | 0.10 | 88 | 1015.1 |
| 20260903141322 | 27 | 152 | 1.6 | 4.8 | 0.00 | 3.20 | 0.10 | 90 | 1014.9 |
| 20260903134423 | 26 | 152 | 0.0 | 3.2 | 0.00 | 3.20 | 0.10 | 91 | 1014.9 |
| 20260903132923 | 26 | 152 | 0.0 | 3.2 | 0.00 | 3.20 | 0.10 | 91 | 1014.8 |
| 20260903131422 | 26 | 152 | 0.0 | 3.2 | 0.00 | 3.20 | 0.10 | 91 | 1014.7 |
| 20260903125922 | 26 | 152 | 1.6 | 4.8 | 0.00 | 3.20 | 0.10 | 91 | 1014.7 |
| 20260903124422 | 26 | 152 | 0.0 | 3.2 | 0.00 | 3.20 | 0.10 | 91 | 1014.5 |
| 20260903122921 | 26 | 152 | 0.0 | 0.0 | 0.00 | 3.20 | 0.10 | 91 | 1014.2 |
| 20260903121421 | 26 | 152 | 0.0 | 3.2 | 0.00 | 3.20 | 0.10 | 91 | 1013.9 |
| 20260903115921 | 26 | 152 | 0.0 | 4.8 | 0.00 | 3.20 | 0.10 | 91 | 1013.8 |
| 20260903115112 | 26 | 152 | 3.2 | 3.2 | 0.00 | 3.20 | 0.10 | 91 | 1013.8 |
| 20260903112920 | 26 | 152 | 0.0 | 4.8 | 0.00 | 3.20 | 0.10 | 90 | 1013.8 |
| 20260903111419 | 26 | 152 | 1.6 | 3.2 | 0.00 | 3.20 | 0.10 | 90 | 1013.7 |
| 20260903105919 | 26 | 152 | 0.0 | 3.2 | 0.00 | 3.20 | 0.10 | 90 | 1013.7 |
| 20260903104419 | 26 | 152 | 0.0 | 4.8 | 0.00 | 3.20 | 0.10 | 90 | 1013.5 |
| 20260903102919 | 26 | 152 | 0.0 | 3.2 | 0.00 | 3.20 | 0.10 | 90 | 1013.5 |
| 20260903101419 | 26 | 152 | 3.2 | 8.0 | 0.00 | 3.20 | 0.10 | 90 | 1013.4 |
| 20260903100614 | 26 | 152 | 0.0 | 8.0 | 0.00 | 3.20 | 0.10 | 90 | 1013.5 |
| 20260903094418 | 26 | 152 | 0.0 | 4.8 | 0.00 | 3.20 | 0.10 | 90 | 1013.3 |
| 20260903092918 | 26 | 152 | 3.2 | 3.2 | 0.00 | 3.20 | 0.10 | 90 | 1013.3 |
| 20260903091417 | 26 | 152 | 0.0 | 3.2 | 0.00 | 3.20 | 0.10 | 90 | 1013.3 |
| 20260903085917 | 26 | 152 | 0.0 | 11.3 | 0.00 | 3.23 | 0.10 | 90 | 1013.4 |
| 20260903084417 | 26 | 152 | 3.2 | 11.3 | 0.00 | 3.23 | 0.10 | 90 | 1013.2 |
| 20260903082916 | 26 | 135 | 3.2 | 8.0 | 0.00 | 3.23 | 0.10 | 90 | 1013.2 |
| 20260903081416 | 26 | 141 | 6.4 | 17.7 | 0.00 | 3.23 | 0.10 | 90 | 1013.1 |
| 20260903081310 | 26 | 151 | 3.2 | 17.7 | 0.00 | 3.23 | 0.10 | 91 | 1013.1 |
| 20260903074415 | 26 | 157 | 4.8 | 14.5 | 0.00 | 3.23 | 0.10 | 91 | 1013.1 |
| 20260903072915 | 26 | 141 | 3.2 | 11.3 | 0.00 | 3.23 | 0.10 | 91 | 1012.9 |
| 20260903071414 | 26 | 141 | 3.2 | 8.0 | 0.00 | 3.23 | 0.10 | 91 | 1013.1 |
| 20260903065914 | 26 | 141 | 1.6 | 4.8 | 0.03 | 3.20 | 0.10 | 91 | 1013.2 |
| 20260903064414 | 26 | 141 | 0.0 | 3.2 | 0.05 | 3.20 | 0.10 | 91 | 1013.3 |
| 20260903062914 | 26 | 141 | 0.0 | 8.0 | 0.08 | 3.20 | 0.10 | 91 | 1013.4 |
| 20260903061413 | 26 | 157 | 4.8 | 11.3 | 0.10 | 3.20 | 0.10 | 91 | 1013.4 |
| 20260903060615 | 26 | 157 | 9.7 | 17.7 | 0.08 | 3.12 | 0.08 | 91 | 1013.7 |
| 20260903055110 | 26 | 128 | 1.6 | 4.8 | 0.05 | 3.12 | 0.05 | 91 | 1014.0 |
| 20260903052912 | 26 | 128 | 0.0 | 3.2 | 0.03 | 3.12 | 0.03 | 90 | 1014.3 |
| 20260903051412 | 25 | 128 | 0.0 | 4.8 | 0.00 | 3.12 | 0.00 | 90 | 1014.4 |
| 20260903045912 | 25 | 128 | 0.0 | 3.2 | 0.00 | 3.12 | 3.12 | 90 | 1014.7 |
| 20260903044412 | 25 | 128 | 1.6 | 3.2 | 0.00 | 3.12 | 3.12 | 90 | 1014.7 |
| 20260903042910 | 25 | 128 | 0.0 | 3.2 | 0.00 | 3.12 | 3.12 | 90 | 1014.8 |
| 20260903041408 | 25 | 128 | 0.0 | 4.8 | 0.00 | 3.12 | 3.12 | 90 | 1014.5 |
| 20260903035907 | 25 | 128 | 0.0 | 3.2 | 0.00 | 3.12 | 3.12 | 90 | 1014.5 |